W9BO-8 Weather Reports


time (UTC)temp
F
wind
direction
speed
knots
gust
knots
rain 1hr
in
rain 24hr
in
rain mn
in
humidity
%
barometer
mb
20210801180130 56 159 0.9 5.2 0.00 0.52 0.00 76 1023.6
20210801175536 56 153 0.9 5.2 0.00 0.52 0.00 72 1023.6
20210801175022 56 188 0.9 6.1 0.00 0.52 0.00 72 1023.6
20210801174515 57 119 1.7 7.0 0.00 0.52 0.00 71 1023.6
20210801173627 56 132 0.9 6.1 0.00 0.52 0.00 78 1023.7
20210801173322 56 155 1.7 5.2 0.00 0.52 0.00 73 1023.8
20210801172546 56 119 1.7 7.0 0.00 0.52 0.00 72 1023.8
20210801172029 55 113 1.7 7.8 0.00 0.52 0.00 73 1023.8
20210801171514 56 123 2.6 7.8 0.00 0.52 0.00 76 1023.9
20210801171109 56 120 1.7 7.8 0.00 0.52 0.00 75 1023.9
20210801170540 56 118 1.7 7.8 0.00 0.52 0.00 73 1023.9
20210801170136 56 117 2.6 7.0 0.00 0.52 0.00 70 1023.8
20210801165514 56 142 0.9 5.2 0.00 0.52 0.00 69 1023.9
20210801165007 56 124 0.0 6.1 0.00 0.52 0.00 66 1023.8
20210801164733 56 129 2.6 7.8 0.00 0.52 0.00 69 1023.8
20210801164042 56 158 1.7 7.8 0.00 0.52 0.00 72 1023.8
20210801163539 55 177 0.9 7.0 0.00 0.52 0.00 66 1023.7
20210801163025 56 172 0.9 7.0 0.00 0.52 0.00 70 1023.8
20210801162516 56 137 0.0 7.8 0.00 0.52 0.00 66 1023.7
20210801161721 55 63 2.6 6.1 0.00 0.52 0.00 70 1023.7
20210801161038 55 159 0.9 4.3 0.00 0.52 0.00 72 1023.6
20210801160516 54 71 0.0 5.2 0.00 0.52 0.00 72 1023.6
20210801160031 53 104 0.9 4.3 0.00 0.52 0.00 73 1023.7
20210801155555 53 166 0.9 4.3 0.00 0.52 0.00 71 1023.6
20210801155045 52 181 0.9 3.5 0.00 0.52 0.00 71 1023.6
20210801154612 52 138 0.0 3.5 0.00 0.52 0.00 78 1023.5
20210801154024 51 138 0.0 3.5 0.00 0.52 0.00 72 1023.6
20210801153546 52 138 0.9 3.5 0.00 0.52 0.00 75 1023.5
20210801152600 51 132 0.0 0.0 0.00 0.52 0.00 79 1023.4
20210801152048 50 132 0.0 0.0 0.00 0.52 0.00 81 1023.4
20210801151606 50 32 0.0 0.0 0.00 0.52 0.00 83 1023.4
20210801151009 50 32 0.0 0.0 0.00 0.52 0.00 83 1023.5
20210801150555 50 32 0.0 0.0 0.00 0.52 0.00 80 1023.4
20210801150108 50 32 0.0 0.0 0.00 0.52 0.00 83 1023.4
20210801145536 50 350 0.0 0.0 0.00 0.52 0.00 86 1023.4
20210801145023 50 350 0.0 0.0 0.00 0.52 0.00 84 1023.4
20210801144508 50 350 0.0 0.0 0.00 0.52 0.00 87 1023.4
20210801144057 49 350 0.0 0.0 0.00 0.52 0.00 85 1023.4
20210801143605 49 350 0.0 0.0 0.00 0.52 0.00 84 1023.4
20210801143110 49 350 0.0 0.0 0.00 0.52 0.00 84 1023.4
20210801142531 48 350 0.0 0.0 0.00 0.52 0.00 84 1023.4
20210801142019 48 350 0.0 0.0 0.00 0.52 0.00 85 1023.4
20210801141501 48 350 0.0 0.0 0.00 0.52 0.00 86 1023.4
20210801141152 48 350 0.0 0.0 0.00 0.52 0.00 88 1023.4
20210801140528 47 350 0.0 0.0 0.00 0.52 0.00 86 1023.4
20210801140021 47 350 0.0 0.0 0.00 0.52 0.00 91 1023.4
20210801135505 47 350 0.0 0.0 0.00 0.52 0.00 91 1023.3
20210801135102 47 350 0.0 0.0 0.00 0.52 0.00 91 1023.2
20210801134636 47 350 0.0 0.0 0.00 0.52 0.00 91 1023.2
20210801134035 47 350 0.0 0.0 0.00 0.52 0.00 92 1023.1
20210801133526 47 350 0.0 0.9 0.00 0.52 0.00 92 1023.0
20210801133013 47 350 0.0 0.9 0.00 0.52 0.00 93 1023.0
20210801132051 47 350 0.0 2.6 0.00 0.52 0.00 93 1022.9
20210801131710 47 350 0.0 2.6 0.00 0.52 0.00 93 1022.8
20210801131025 47 350 0.0 1.7 0.00 0.52 0.00 93 1022.8
20210801130505 46 350 0.0 1.7 0.00 0.52 0.00 93 1022.8
20210801130144 47 350 0.0 0.9 0.00 0.52 0.00 93 1022.7
20210801125605 47 350 0.0 1.7 0.00 0.52 0.00 93 1022.7
20210801125034 47 350 0.0 1.7 0.00 0.52 0.00 93 1022.6
20210801124546 47 350 0.0 2.6 0.00 0.52 0.00 93 1022.5
20210801124025 47 350 0.0 2.6 0.00 0.52 0.00 93 1022.5
20210801123502 47 350 0.0 1.7 0.00 0.52 0.00 94 1022.5
20210801123259 47 350 0.0 1.7 0.00 0.52 0.00 94 1022.4
20210801122553 47 350 0.0 2.6 0.00 0.52 0.00 93 1022.4
20210801122030 47 350 0.0 2.6 0.00 0.52 0.00 93 1022.2
20210801121629 47 350 0.0 2.6 0.00 0.52 0.00 92 1022.2
20210801120540 46 350 0.0 2.6 0.00 0.52 0.00 92 1022.2
20210801120113 46 350 0.0 2.6 0.00 0.52 0.00 92 1022.0
20210801115514 47 350 0.0 0.0 0.00 0.52 0.00 93 1022.0
20210801115005 47 350 0.0 0.0 0.00 0.52 0.00 93 1022.0
20210801114716 47 350 0.0 2.6 0.00 0.52 0.00 93 1021.9
20210801114043 47 350 0.0 2.6 0.00 0.52 0.00 93 1021.9
20210801113531 47 350 0.9 3.5 0.00 0.52 0.00 92 1021.9
20210801113038 47 351 0.0 3.5 0.00 0.52 0.00 92 1021.7
20210801112508 47 351 0.9 4.3 0.00 0.52 0.00 92 1021.8
20210801112100 47 355 0.9 4.3 0.00 0.52 0.00 91 1021.8
20210801111551 47 331 0.9 2.6 0.00 0.52 0.00 91 1021.9
20210801111042 47 327 0.9 2.6 0.00 0.52 0.00 91 1021.8
20210801110516 47 327 0.0 2.6 0.00 0.52 0.00 91 1021.8
20210801110007 47 327 0.9 4.3 0.00 0.52 0.00 92 1021.8
20210801105604 47 355 0.0 3.5 0.00 0.52 0.00 92 1021.8
20210801105046 47 351 0.9 3.5 0.00 0.52 0.00 92 1021.7
20210801104603 47 334 0.9 4.3 0.00 0.52 0.00 91 1021.7
20210801104023 47 334 0.9 4.3 0.00 0.52 0.00 91 1021.6
20210801103511 47 340 0.9 4.3 0.00 0.52 0.00 90 1021.5
20210801103002 47 344 1.7 3.5 0.00 0.52 0.00 91 1021.6
20210801102553 47 321 0.9 3.5 0.00 0.52 0.00 91 1021.5
20210801102054 47 346 1.7 4.3 0.00 0.52 0.00 90 1021.5
20210801101542 47 327 0.9 4.3 0.00 0.52 0.00 89 1021.4
20210801101010 47 338 0.9 3.5 0.00 0.52 0.00 89 1021.4
20210801100619 47 316 1.7 3.5 0.00 0.52 0.00 89 1021.4
20210801100116 47 311 1.7 3.5 0.00 0.52 0.00 90 1021.5
20210801095551 47 310 0.9 3.5 0.00 0.52 0.00 91 1021.4
20210801095024 48 309 0.9 3.5 0.00 0.52 0.00 92 1021.3
20210801094527 48 309 0.9 3.5 0.00 0.52 0.00 93 1021.4
20210801094001 48 309 0.9 3.5 0.00 0.52 0.00 94 1021.3
20210801093554 48 300 1.7 3.5 0.00 0.52 0.00 94 1021.3
20210801093229 48 281 0.9 4.3 0.00 0.52 0.00 95 1021.2
20210801092529 48 341 0.9 4.3 0.00 0.52 0.00 95 1021.1
20210801092036 48 292 0.0 4.3 0.00 0.52 0.00 95 1021.1
20210801091520 48 346 0.9 4.3 0.00 0.52 0.00 95 1021.0
20210801091057 48 317 0.0 3.5 0.00 0.52 0.00 95 1020.8
20210801090534 48 323 0.9 4.3 0.00 0.52 0.00 95 1020.7
20210801090047 48 342 0.9 4.3 0.00 0.52 0.00 95 1020.6
20210801085514 49 325 0.9 3.5 0.00 0.52 0.00 95 1020.7
20210801085003 48 308 0.9 4.3 0.00 0.52 0.00 95 1020.6
20210801084752 48 307 0.0 4.3 0.00 0.52 0.00 95 1020.6
20210801084043 49 333 0.9 4.3 0.00 0.52 0.00 95 1020.6
20210801083534 48 319 0.9 5.2 0.00 0.52 0.00 95 1020.7
20210801083051 48 329 1.7 5.2 0.00 0.52 0.00 95 1020.9
20210801082512 48 271 0.9 3.5 0.00 0.52 0.00 95 1020.9
20210801082100 48 314 0.0 3.5 0.00 0.52 0.00 95 1020.9
20210801081753 48 300 0.0 3.5 0.00 0.52 0.00 95 1021.0
20210801081107 48 294 0.9 3.5 0.00 0.52 0.00 95 1021.1
20210801080515 48 294 0.9 3.5 0.00 0.52 0.00 95 1021.1
20210801080009 49 292 0.0 3.5 0.00 0.54 0.00 95 1021.1
20210801075557 49 329 0.0 3.5 0.00 0.54 0.00 95 1021.0
20210801075131 49 298 0.0 4.3 0.00 0.54 0.00 95 1021.1
20210801074548 49 298 0.9 4.3 0.00 0.54 0.00 95 1021.1
20210801074022 49 327 0.9 5.2 0.00 0.54 0.00 95 1021.3
20210801073511 49 340 0.9 5.2 0.00 0.54 0.00 95 1021.2
20210801072551 49 298 0.0 1.7 0.00 0.54 0.00 95 1021.3
20210801072038 49 298 0.0 0.9 0.00 0.54 0.00 96 1021.4
20210801071611 49 298 0.0 0.0 0.00 0.54 0.00 96 1021.5
20210801071006 49 298 0.0 0.0 0.00 0.54 0.00 96 1021.6
20210801070608 49 298 0.0 0.0 0.00 0.54 0.00 96 1021.6
20210801070127 49 298 0.0 0.0 0.00 0.55 0.00 96 1021.6
20210801065539 49 298 0.0 0.0 0.00 0.55 0.00 96 1021.7
20210801065032 49 298 0.0 0.9 0.00 0.55 0.00 96 1021.7
20210801064531 49 296 0.0 3.5 0.00 0.55 0.00 96 1021.8
20210801064004 49 296 0.0 3.5 0.00 0.55 0.00 96 1021.8
20210801063608 49 325 0.0 2.6 0.00 0.55 0.00 96 1021.9
20210801063115 49 336 0.0 2.6 0.00 0.55 0.00 96 1021.9
20210801062550 49 339 0.0 2.6 0.00 0.55 0.00 96 1021.9
20210801062019 49 335 0.0 3.5 0.00 0.55 0.00 96 1021.9
20210801061533 49 340 0.0 3.5 0.00 0.55 0.00 96 1021.9
20210801061100 49 334 0.0 0.0 0.00 0.55 0.00 96 1022.0
20210801060548 49 334 0.0 0.0 0.00 0.55 0.00 96 1021.9
20210801060035 49 294 0.0 0.0 0.00 0.56 0.55 96 1021.9
20210801055528 49 349 0.0 0.0 0.00 0.56 0.55 96 1021.9
20210801055012 49 349 0.0 0.0 0.00 0.56 0.55 96 1021.7
20210801054653 49 350 0.0 0.0 0.00 0.56 0.55 96 1021.7
20210801054045 49 350 0.0 0.0 0.00 0.56 0.55 96 1021.8
20210801053533 49 350 0.0 0.0 0.00 0.56 0.55 96 1021.7
20210801053053 49 355 0.0 1.7 0.00 0.56 0.55 96 1021.6
20210801052514 49 355 0.0 2.6 0.00 0.56 0.55 96 1021.6
20210801051641 49 355 0.0 3.5 0.00 0.56 0.55 96 1021.6
20210801051039 49 346 0.0 5.2 0.00 0.56 0.55 96 1021.6
20210801050524 49 355 0.9 7.0 0.00 0.56 0.55 96 1021.6
20210801050012 49 30 0.0 7.0 0.00 0.56 0.55 96 1021.7
20210801045555 49 348 0.0 4.3 0.00 0.56 0.55 96 1021.7
20210801045044 49 351 0.0 4.3 0.00 0.56 0.55 95 1021.8
20210801044626 49 18 0.0 7.0 0.00 0.56 0.55 95 1021.9
20210801044033 49 326 0.9 7.0 0.00 0.56 0.55 95 1021.8
20210801043146 49 9 0.0 4.3 0.00 0.56 0.55 95 1021.7
20210801042542 49 40 0.9 4.3 0.00 0.56 0.55 95 1021.6
20210801042034 49 5 1.7 5.2 0.00 0.56 0.55 95 1021.7
20210801041534 49 336 0.9 5.2 0.00 0.56 0.55 95 1021.7
20210801040549 49 355 0.0 4.3 0.00 0.56 0.55 94 1021.6
20210801040113 49 34 0.0 3.5 0.00 0.70 0.55 94 1021.7
20210801035543 49 313 0.9 3.5 0.00 0.70 0.55 94 1021.5
20210801035037 49 327 0.9 3.5 0.00 0.70 0.55 94 1021.5
20210801034513 49 360 0.0 3.5 0.00 0.70 0.55 94 1021.5
20210801034056 49 355 0.9 3.5 0.00 0.70 0.55 94 1021.5
20210801033545 49 19 0.0 4.3 0.00 0.70 0.55 94 1021.3
20210801033123 49 5 0.0 3.5 0.00 0.70 0.55 94 1021.3
20210801032524 49 318 0.0 7.0 0.00 0.70 0.55 94 1021.3
20210801032012 49 336 0.9 7.8 0.00 0.70 0.55 94 1021.2
20210801031502 49 316 1.7 7.8 0.00 0.70 0.55 94 1021.0
20210801031107 49 319 0.9 7.0 0.00 0.70 0.55 95 1020.9
20210801030533 49 302 0.9 5.2 0.00 0.70 0.55 95 1020.8
20210801030109 49 327 0.0 5.2 0.00 0.70 0.55 95 1020.8
20210801025511 49 309 0.0 4.3 0.00 0.70 0.55 95 1020.6
20210801025059 49 329 0.0 4.3 0.00 0.70 0.55 95 1020.6
20210801024707 49 342 0.9 4.3 0.00 0.70 0.55 95 1020.5
20210801024106 49 275 0.0 7.0 0.00 0.70 0.55 95 1020.5
20210801023525 49 329 0.0 7.0 0.00 0.70 0.55 95 1020.5
20210801023051 49 355 0.0 5.2 0.00 0.70 0.55 95 1020.4
20210801022507 49 355 0.9 5.2 0.00 0.70 0.55 95 1020.3
20210801022057 49 300 0.0 4.3 0.00 0.70 0.55 95 1020.3
20210801021700 49 333 1.7 7.0 0.00 0.70 0.55 95 1020.3
20210801021021 49 5 1.7 7.0 0.00 0.70 0.55 95 1020.1
20210801020512 49 346 0.9 7.0 0.00 0.70 0.55 95 1020.1
20210801015605 49 328 0.9 5.2 0.00 0.70 0.55 95 1020.0
20210801015039 49 340 0.9 7.0 0.01 0.70 0.55 95 1019.9
20210801014557 49 355 0.9 7.0 0.01 0.70 0.55 95 1019.9
20210801014022 49 355 1.7 7.0 0.01 0.70 0.55 95 1019.9
20210801013505 49 304 0.9 6.1 0.01 0.70 0.55 95 1019.9
20210801013232 49 324 0.0 4.3 0.02 0.70 0.55 95 1019.9
20210801012549 49 344 0.0 3.5 0.03 0.70 0.55 95 1019.8
20210801012037 49 355 0.9 7.0 0.04 0.70 0.55 95 1019.8
20210801011559 49 334 0.0 7.0 0.06 0.70 0.55 95 1019.7
20210801011005 49 337 0.0 5.2 0.11 0.70 0.55 95 1019.7
20210801010557 49 322 0.9 7.8 0.13 0.70 0.55 95 1019.7
20210801010138 50 321 0.9 7.8 0.15 0.70 0.55 95 1019.7
20210801005536 50 338 0.0 5.2 0.15 0.70 0.55 95 1019.6
20210801005023 50 348 1.7 5.2 0.15 0.69 0.54 95 1019.5
20210801004513 50 11 1.7 5.2 0.16 0.69 0.54 95 1019.5
20210801004005 50 284 0.0 7.0 0.17 0.69 0.54 95 1019.4
20210801003552 50 32 1.7 7.0 0.18 0.69 0.54 95 1019.4
20210801003204 50 5 0.9 7.0 0.19 0.68 0.53 95 1019.3
20210801002535 51 350 0.9 7.0 0.19 0.67 0.52 95 1019.3
20210801002033 51 329 0.0 2.6 0.20 0.66 0.51 95 1019.2
20210801001527 51 5 0.0 5.2 0.20 0.63 0.48 95 1019.2
20210801000544 51 336 0.0 4.3 0.20 0.56 0.42 95 1019.1
20210801000057 51 355 0.0 0.9 0.19 0.55 0.40 95 1019.0
20210731235524 51 297 0.0 0.0 0.22 0.55 0.40 95 1019.1
20210731235018 51 344 0.0 2.6 0.23 0.54 0.39 95 1018.9
20210731234503 51 344 0.0 2.6 0.24 0.53 0.38 95 1018.9
20210731234054 51 344 0.0 2.6 0.26 0.52 0.37 95 1018.9
20210731233545 51 344 0.0 2.6 0.28 0.51 0.36 95 1018.9
20210731233052 51 344 0.0 3.5 0.28 0.49 0.34 94 1018.9
20210731232528 51 345 0.9 5.2 0.28 0.48 0.33 94 1018.8
20210731232014 51 5 0.0 5.2 0.26 0.45 0.30 94 1018.8
20210731231505 51 355 1.7 5.2 0.23 0.42 0.27 94 1018.8
20210731231057 52 360 0.9 4.3 0.22 0.40 0.25 94 1018.8
20210731230617 52 61 0.0 4.3 0.19 0.37 0.22 94 1018.7
20210731230030 52 355 0.0 3.5 0.17 0.35 0.20 94 1018.6
20210731225515 52 339 0.9 3.5 0.15 0.33 0.18 93 1018.5
20210731225002 52 344 0.0 5.2 0.13 0.31 0.16 93 1018.5
20210731224815 53 344 0.9 5.2 0.11 0.28 0.14 93 1018.4
20210731224132 53 336 0.9 4.3 0.08 0.26 0.11 92 1018.4
20210731223536 53 290 0.9 4.3 0.05 0.23 0.08 92 1018.4
20210731223107 53 344 0.0 2.6 0.01 0.19 0.04 92 1018.4
20210731222514 54 5 0.0 1.7 0.01 0.19 0.04 92 1018.5
20210731222007 54 350 0.0 2.6 0.01 0.19 0.04 92 1018.4
20210731221759 54 351 0.0 2.6 0.01 0.19 0.04 91 1018.3
20210731221053 54 351 0.0 2.6 0.00 0.18 0.03 90 1018.4
20210731220524 54 9 0.0 2.6 0.00 0.18 0.03 89 1018.3
20210731220016 54 5 0.0 2.6 0.00 0.18 0.03 88 1018.2
20210731215502 54 360 0.0 2.6 0.00 0.18 0.03 88 1018.2
20210731215105 54 360 0.0 2.6 0.00 0.18 0.03 89 1018.1
20210731214556 54 46 0.0 2.6 0.00 0.18 0.03 89 1018.0
20210731214035 54 5 0.0 2.6 0.00 0.18 0.03 89 1018.0
20210731213537 54 5 0.0 3.5 0.00 0.18 0.03 88 1018.0
20210731213040 54 51 0.0 3.5 0.00 0.18 0.03 89 1018.0
20210731212506 54 50 0.0 1.7 0.00 0.18 0.03 89 1017.9
20210731212058 54 57 0.0 4.3 0.00 0.18 0.03 90 1017.9
20210731211635 54 57 0.0 4.3 0.00 0.18 0.03 89 1017.9
20210731211040 55 39 0.0 3.5 0.00 0.18 0.03 88 1017.8
20210731210520 55 355 0.0 3.5 0.00 0.18 0.03 88 1017.9
20210731210011 55 29 0.0 3.5 0.00 0.18 0.03 88 1017.7
20210731205600 55 13 0.9 3.5 0.00 0.18 0.03 87 1017.8
20210731205059 55 16 0.0 2.6 0.00 0.18 0.03 87 1017.7
20210731204557 55 16 0.0 3.5 0.00 0.18 0.03 86 1017.7
20210731204038 55 349 0.9 5.2 0.00 0.18 0.03 86 1017.6
20210731203525 55 51 0.9 5.2 0.00 0.18 0.03 87 1017.6
20210731203024 55 50 0.9 3.5 0.00 0.18 0.03 87 1017.6
20210731202555 55 25 0.9 3.5 0.00 0.18 0.03 89 1017.5